User: anonymous   Login
Location: Caltech
(34.1382°N, 118.1253°W)
Time: 21:53:09
(UTC-07:00)
Language:

Uribyol 2 - Orbit

View from above orbital plane
View from above orbital plane
View from above satellite
View from above satellite

Ground track
Ground track

The orbit data is extracted from the following two-line orbital elements,

1 22828U 93061F   14302.78753802  .00000250  00000-0  11333-3 0  7484
2 22828 098.6640 247.6970 0009313 220.8277 139.2208 14.30371468 68484
Epoch (UTC): 29 October 2014 18:54:03
Eccentricity: 0.0009313
inclination: 98.6640°
perigee height: 784 km
apogee height: 797 km
right ascension of ascending node: 247.6970°
argument of perigee: 220.8277°
revolutions per day: 14.30371468
mean anomaly at epoch: 139.2208°
orbit number at epoch: 6848

The dashed part of the orbit path shows where the satellite is in the earth's shadow,  

DLR